N0BGS Weather Reports


time (UTC)temp
F
wind
direction
speed
knots
gust
knots
rain 1hr
in
rain 24hr
in
rain mn
in
humidity
%
barometer
mb
20260507115003 49 270 0.9 4.3 0.00 0.65 0.13 84 1005.4
20260507114003 48 276 1.7 6.1 0.00 0.65 0.13 87 1006.0
20260507113004 48 287 0.9 3.5 0.00 0.65 0.13 92 1005.7
20260507112003 47 294 0.0 2.6 0.00 0.65 0.13 93 1005.6
20260507111003 46 298 0.9 4.3 0.00 0.65 0.13 93 1005.4
20260507110024 46 275 0.9 6.1 0.00 0.65 0.13 93 1005.5
20260507105003 46 281 0.9 5.2 0.00 0.65 0.13 94 1005.6
20260507104003 45 303 0.0 2.6 0.00 0.65 0.13 94 1005.2
20260507103003 45 304 0.0 2.6 0.00 0.65 0.13 95 1005.4
20260507102003 45 0 0.0 0.0 0.00 0.65 0.13 94 1005.0
20260507101003 44 304 0.0 0.9 0.00 0.65 0.13 95 1005.2
20260507100003 44 0 0.0 0.0 0.00 0.65 0.13 95 1005.2
20260507095024 44 0 0.0 0.0 0.00 0.65 0.13 94 1005.1
20260507094024 44 304 0.0 1.7 0.00 0.65 0.13 94 1004.9
20260507093003 44 0 0.0 0.0 0.00 0.65 0.13 94 1005.0
20260507092003 44 0 0.0 0.0 0.00 0.65 0.13 94 1005.4
20260507091004 44 303 0.0 1.7 0.00 0.65 0.13 94 1004.6
20260507090005 44 300 0.0 2.6 0.00 0.65 0.13 94 1004.6
20260507085004 44 275 0.9 5.2 0.00 0.65 0.13 94 1004.7
20260507084004 45 266 0.0 1.7 0.01 0.65 0.13 94 1004.6
20260507083004 45 275 0.9 3.5 0.01 0.65 0.13 94 1004.8
20260507082004 46 274 1.7 7.0 0.01 0.65 0.13 94 1004.6
20260507081004 46 293 1.7 6.1 0.01 0.65 0.13 94 1004.8
20260507080025 46 288 1.7 7.0 0.01 0.65 0.13 94 1004.4
20260507075025 47 279 0.9 6.1 0.01 0.65 0.13 94 1004.9
20260507074004 47 233 0.0 2.6 0.00 0.64 0.12 95 1004.4
20260507073004 47 272 0.9 5.2 0.00 0.64 0.12 95 1004.6
20260507072025 47 278 0.9 4.3 0.00 0.64 0.12 94 1004.2
20260507071025 47 279 0.9 5.2 0.00 0.64 0.12 94 1004.0
20260507070025 47 264 0.9 3.5 0.01 0.64 0.12 94 1004.0
20260507065004 47 272 0.9 3.5 0.02 0.64 0.12 94 1004.0
20260507064004 47 265 0.9 3.5 0.05 0.64 0.12 94 1003.8
20260507063025 47 267 0.0 2.6 0.06 0.64 0.12 94 1003.9
20260507062004 48 265 0.0 2.6 0.07 0.64 0.12 94 1004.0
20260507061004 48 303 0.9 5.2 0.07 0.64 0.12 94 1003.8
20260507060004 48 276 0.0 1.7 0.08 0.63 0.11 94 1003.8
20260507055004 48 265 1.7 6.1 0.07 0.62 0.10 94 1004.2
20260507054004 48 270 2.6 10.4 0.05 0.59 0.07 94 1004.1
20260507053025 48 283 0.9 9.6 0.04 0.58 0.06 94 1003.8
20260507052025 49 271 1.7 7.8 0.03 0.57 0.05 94 1003.7
20260507051004 49 304 1.7 7.0 0.04 0.57 0.05 94 1003.4
20260507050003 49 285 2.6 9.6 0.03 0.55 0.03 94 1003.7
20260507045025 50 285 3.5 12.2 0.04 0.55 0.03 94 1003.7
20260507044024 51 276 2.6 10.4 0.03 0.54 0.03 94 1003.7
20260507043003 51 290 4.3 11.3 0.03 0.54 0.02 94 1003.5
20260507042003 52 230 1.7 8.7 0.04 0.54 0.02 96 1003.4
20260507041003 52 200 0.0 0.9 0.03 0.53 0.01 96 1002.9
20260507040025 52 200 0.0 1.7 0.02 0.52 0.00 95 1002.9
20260507035024 52 199 0.0 1.7 0.01 0.51 0.51 95 1002.9
20260507034006 52 199 0.0 2.6 0.01 0.51 0.51 95 1003.0
20260507033024 51 179 1.7 8.7 0.01 0.51 0.51 95 1002.9
20260507032003 52 163 2.6 8.7 0.00 0.50 0.50 95 1002.9
20260507031003 52 158 3.5 10.4 0.00 0.50 0.50 95 1002.8
20260507030024 52 151 2.6 8.7 0.00 0.50 0.50 95 1002.9
20260507025003 52 155 3.5 9.6 0.00 0.50 0.50 95 1002.8
20260507024003 52 138 2.6 7.8 0.00 0.50 0.50 95 1003.1
20260507023003 52 143 2.6 7.0 0.01 0.50 0.50 95 1003.3
20260507022003 52 123 1.7 6.1 0.01 0.50 0.50 95 1003.4
20260507021003 52 142 2.6 8.7 0.02 0.50 0.50 95 1003.5
20260507020003 52 130 2.6 7.8 0.03 0.50 0.50 95 1003.7
20260507015003 52 130 2.6 8.7 0.04 0.50 0.50 95 1003.8
20260507014003 52 140 2.6 7.8 0.04 0.50 0.50 95 1004.1
20260507013003 53 149 2.6 8.7 0.03 0.49 0.49 95 1004.1
20260507012003 53 144 2.6 9.6 0.03 0.49 0.49 95 1004.5
20260507011024 52 149 2.6 11.3 0.02 0.48 0.48 95 1004.5
20260507010003 52 140 1.7 7.0 0.01 0.47 0.47 95 1004.7
20260507005003 52 128 1.7 7.8 0.00 0.46 0.46 95 1004.8
20260507004024 52 129 1.7 7.8 0.00 0.46 0.46 95 1005.0
20260507003024 52 126 2.6 7.0 0.01 0.46 0.46 95 1005.1
20260507002024 52 126 1.7 7.0 0.02 0.46 0.46 95 1005.1
20260507001004 52 149 1.7 7.8 0.04 0.46 0.46 95 1005.1
20260507000025 52 151 3.5 8.7 0.05 0.46 0.46 95 1005.3
20260506235025 52 143 3.5 8.7 0.06 0.46 0.46 95 1005.3
20260506234004 52 146 2.6 8.7 0.08 0.46 0.46 95 1005.3
20260506233004 52 132 1.7 6.1 0.12 0.45 0.45 95 1005.2
20260506232004 52 119 1.7 6.1 0.14 0.44 0.44 95 1005.3
20260506231025 52 129 1.7 7.8 0.14 0.42 0.42 95 1005.2
20260506230004 52 124 2.6 7.8 0.16 0.41 0.41 95 1005.3
20260506225004 52 112 2.6 9.6 0.16 0.40 0.40 94 1005.3
20260506224004 52 122 2.6 8.7 0.15 0.38 0.38 94 1005.5
20260506223004 53 124 3.5 10.4 0.12 0.33 0.33 94 1005.6
20260506222004 53 129 1.7 8.7 0.11 0.30 0.30 94 1005.7
20260506221025 53 131 3.5 7.8 0.11 0.28 0.28 94 1005.9
20260506220004 53 133 2.6 7.0 0.10 0.25 0.25 94 1006.1
20260506215025 53 128 2.6 9.6 0.11 0.24 0.24 94 1006.0
20260506214025 53 120 2.6 7.0 0.12 0.23 0.23 94 1005.8
20260506213004 53 138 1.7 10.4 0.13 0.21 0.21 94 1006.1
20260506212004 52 156 2.6 7.0 0.14 0.19 0.19 94 1006.2
20260506211004 52 126 1.7 8.7 0.13 0.17 0.17 94 1006.3
20260506210004 52 128 2.6 7.8 0.13 0.15 0.15 93 1006.2
20260506205004 52 119 2.6 7.8 0.11 0.13 0.13 93 1006.3
20260506204004 53 127 3.5 10.4 0.10 0.11 0.11 92 1006.3
20260506203004 53 160 2.6 10.4 0.08 0.08 0.08 92 1006.7
20260506202004 53 137 2.6 7.8 0.05 0.05 0.05 92 1006.4
20260506201004 53 126 3.5 8.7 0.04 0.04 0.04 91 1006.3
20260506200004 54 125 2.6 9.6 0.02 0.02 0.02 91 1006.3
20260506195004 54 123 2.6 10.4 0.02 0.02 0.02 90 1006.3
20260506194004 54 116 2.6 8.7 0.01 0.01 0.01 89 1006.4
20260506193004 55 106 3.5 11.3 0.00 0.00 0.00 86 1006.8
20260506192004 56 129 3.5 8.7 0.00 0.00 0.00 83 1007.0
20260506191003 57 148 4.3 8.7 0.00 0.00 0.00 81 1006.9
20260506190004 58 130 4.3 11.3 0.00 0.00 0.00 81 1006.8
20260506185003 58 120 3.5 13.0 0.00 0.00 0.00 81 1006.7
20260506184003 58 127 4.3 11.3 0.00 0.00 0.00 81 1006.7
20260506183004 58 125 4.3 10.4 0.00 0.00 0.00 81 1006.7
20260506182003 58 121 4.3 11.3 0.00 0.00 0.00 80 1006.9
20260506181003 59 132 3.5 13.0 0.00 0.00 0.00 79 1006.9
20260506180024 60 135 5.2 10.4 0.00 0.00 0.00 79 1007.2
20260506175003 60 132 5.2 10.4 0.00 0.00 0.00 79 1007.2
20260506174003 60 155 4.3 8.7 0.00 0.00 0.00 78 1007.5
20260506173004 60 138 3.5 11.3 0.00 0.00 0.00 79 1007.5
20260506172003 60 154 4.3 9.6 0.00 0.00 0.00 79 1007.8
20260506171003 59 128 3.5 8.7 0.00 0.00 0.00 80 1007.8
20260506170024 59 137 3.5 10.4 0.00 0.00 0.00 80 1007.9
20260506165024 59 141 2.6 8.7 0.00 0.00 0.00 80 1008.1
20260506164003 58 147 4.3 8.7 0.00 0.00 0.00 80 1008.2
20260506163003 58 144 4.3 10.4 0.00 0.00 0.00 81 1008.3
20260506162003 58 145 5.2 10.4 0.00 0.00 0.00 81 1008.4
20260506161003 58 142 4.3 12.2 0.00 0.00 0.00 81 1008.5
20260506160003 58 146 4.3 13.0 0.00 0.00 0.00 81 1008.6
20260506155003 58 150 4.3 10.4 0.00 0.00 0.00 82 1008.8
20260506154003 58 141 3.5 9.6 0.00 0.00 0.00 82 1008.7
20260506153003 58 115 2.6 9.6 0.00 0.00 0.00 82 1008.3
20260506152003 58 116 4.3 10.4 0.00 0.00 0.00 81 1008.3
20260506151003 59 129 3.5 10.4 0.00 0.00 0.00 80 1008.3
20260506150004 59 140 2.6 8.7 0.00 0.00 0.00 80 1008.7
20260506145004 58 124 5.2 10.4 0.00 0.00 0.00 80 1008.9
20260506144004 59 118 4.3 14.8 0.00 0.00 0.00 78 1009.1
20260506143004 59 148 3.5 10.4 0.00 0.00 0.00 79 1009.3
20260506142004 59 155 3.5 12.2 0.00 0.00 0.00 78 1009.3
20260506141004 59 169 3.5 12.2 0.00 0.00 0.00 78 1009.2
20260506140025 59 145 2.6 7.0 0.00 0.00 0.00 78 1009.1
20260506135004 59 156 3.5 8.7 0.00 0.00 0.00 79 1009.0
20260506134004 58 109 2.6 7.8 0.00 0.00 0.00 78 1009.1
20260506133004 58 154 2.6 7.0 0.00 0.00 0.00 79 1009.2
20260506132005 58 148 3.5 8.7 0.00 0.00 0.00 79 1009.1
20260506131004 57 121 2.6 7.8 0.00 0.00 0.00 81 1009.2
20260506130005 57 127 1.7 7.0 0.00 0.00 0.00 81 1009.5
20260506125004 56 140 2.6 7.0 0.00 0.00 0.00 82 1009.6
20260506124004 56 133 3.5 7.0 0.00 0.00 0.00 83 1009.7
20260506123004 56 154 3.5 9.6 0.00 0.00 0.00 82 1009.7
20260506122004 55 158 1.7 5.2 0.00 0.00 0.00 84 1009.7
20260506121004 54 136 2.6 7.0 0.00 0.00 0.00 84 1009.8
20260506120004 54 144 3.5 7.8 0.00 0.00 0.00 85 1009.8